Weather History for KCVX - August, 2012

Change the Weather History Date:

Wednesday, August 8, 2012

  Actual Average Record
Temperature  
Mean Temperature 66 °F -  
Max Temperature 73 °F 76 °F 95 °F (2001)
Min Temperature 58 °F 61 °F 51 °F (2002)
Growing Degree Days 16 (Base 50)    
Moisture  
Dew Point 58 °F    
Average Humidity 68    
Maximum Humidity 94    
Minimum Humidity 51    
Precipitation  
Precipitation 0.00 in - - ()
Sea Level Pressure  
Sea Level Pressure 30.04 in    
Wind  
Wind Speed 6 mph (NNW)    
Max Wind Speed 10 mph    
Max Gust Speed 16 mph    
Visibility 10 miles    
Events      
Averages and records for this station are not official NWS values.
T = Trace of Precipitation, MM = Missing Value Source: NWS Daily Summary

Daily Weather History Graph

Daily Weather History Graph

Search for Another Location

Airport or City:

Trip Planner

Search our weather history database for the weather conditions in past years. The results will help you decide how hot, cold, wet, or windy it might be!

Date:

Astronomy

Aug. 08, 2012 Rise Set
Actual Time 6:34 AM EDT 8:58 PM EDT
Civil Twilight 6:01 AM EDT 9:31 PM EDT
Nautical Twilight 5:20 AM EDT 10:11 PM EDT
Astronomical Twilight 4:33 AM EDT 10:58 PM EDT
Moon 11:47 PM EDT (8/8) 1:42 PM EDT (8/8)
Length of Visible Light 15h 29m
Length of Day
14h 23m
Waning Gibbous, 61% of the Moon is Illuminated
Aug 8
Waning Gibbous
Aug 9
Last Quarter
Aug 17
New
Aug 24
First Quarter
Aug 31
Full

Hourly Weather History & Observations

Time (EDT) Temp. Dew Point Humidity Pressure Visibility Wind Dir Wind Speed Gust Speed Precip Events Conditions
12:14 AM 67.5 °F 55.0 °F 64% 30.03 in 10.0 mi NNE 6.9 mph - N/A   Clear
12:34 AM 67.1 °F 55.6 °F 66% 30.04 in 10.0 mi NE 4.6 mph - N/A   Clear
12:54 AM 66.2 °F 55.9 °F 69% 30.03 in 10.0 mi NNE 8.1 mph - N/A   Clear
1:15 AM 66.2 °F 56.3 °F 70% 30.03 in 10.0 mi NNE 3.5 mph - N/A   Clear
1:34 AM 65.8 °F 56.3 °F 71% 30.03 in 10.0 mi North 5.8 mph - N/A   Clear
1:54 AM 66.0 °F 55.6 °F 69% 30.03 in 10.0 mi North 5.8 mph - N/A   Clear
2:14 AM 65.7 °F 56.3 °F 72% 30.03 in 10.0 mi NW 5.8 mph - N/A   Clear
2:34 AM 64.9 °F 55.6 °F 72% 30.02 in 10.0 mi NNW 4.6 mph - N/A   Clear
2:54 AM 64.6 °F 57.2 °F 77% 30.03 in 10.0 mi NW 6.9 mph - N/A   Clear
3:14 AM 65.7 °F 56.8 °F 73% 30.03 in 10.0 mi NNW 8.1 mph - N/A   Clear
3:34 AM 65.3 °F 57.6 °F 76% 30.03 in 10.0 mi NW 8.1 mph - N/A   Clear
3:55 AM 64.8 °F 56.5 °F 74% 30.02 in 10.0 mi NW 5.8 mph - N/A   Clear
4:14 AM 64.4 °F 56.3 °F 75% 30.02 in 10.0 mi NW 6.9 mph - N/A   Clear
4:34 AM 64.4 °F 57.2 °F 77% 30.02 in 10.0 mi NW 4.6 mph - N/A   Clear
4:55 AM 63.9 °F 58.1 °F 81% 30.02 in 10.0 mi NW 5.8 mph - N/A   Clear
5:14 AM 63.5 °F 58.5 °F 84% 30.02 in 10.0 mi NW 4.6 mph - N/A   Clear
5:34 AM 63.5 °F 58.5 °F 84% 30.02 in 10.0 mi NW 4.6 mph - N/A   Clear
5:54 AM 63.1 °F 58.6 °F 85% 30.02 in 10.0 mi WNW 4.6 mph - N/A   Clear
6:14 AM 61.2 °F 57.7 °F 88% 30.03 in 10.0 mi Calm Calm - N/A   Scattered Clouds
6:34 AM 59.4 °F 57.2 °F 93% 30.03 in 10.0 mi Calm Calm - N/A   Scattered Clouds
6:54 AM 59.0 °F 57.0 °F 93% 30.02 in 10.0 mi Calm Calm - N/A   Scattered Clouds
7:14 AM 58.5 °F 56.8 °F 94% 30.03 in 10.0 mi SW 3.5 mph - N/A   Scattered Clouds
7:34 AM 61.5 °F 59.5 °F 93% 30.03 in 10.0 mi West 3.5 mph - N/A   Mostly Cloudy
7:54 AM 65.3 °F 60.8 °F 85% 30.03 in 10.0 mi NNW 5.8 mph - N/A   Overcast
8:14 AM 66.4 °F 60.6 °F 82% 30.03 in 10.0 mi NW 4.6 mph - N/A   Overcast
8:34 AM 66.6 °F 60.1 °F 80% 30.04 in 10.0 mi NW 4.6 mph - N/A   Overcast
8:54 AM 68.2 °F 60.6 °F 77% 30.05 in 10.0 mi WNW 4.6 mph - N/A   Overcast
9:14 AM 68.9 °F 61.0 °F 76% 30.05 in 10.0 mi WNW 5.8 mph - N/A   Mostly Cloudy
9:34 AM 69.4 °F 60.4 °F 73% 30.05 in 10.0 mi WNW 4.6 mph - N/A   Scattered Clouds
9:54 AM 69.4 °F 61.0 °F 74% 30.06 in 10.0 mi Calm Calm - N/A   Scattered Clouds
10:15 AM 70.0 °F 61.3 °F 74% 30.05 in 10.0 mi North 4.6 mph - N/A   Mostly Cloudy
10:34 AM 69.4 °F 60.8 °F 74% 30.05 in 10.0 mi NNW 5.8 mph - N/A   Scattered Clouds
10:54 AM 70.3 °F 60.1 °F 70% 30.05 in 10.0 mi North 8.1 mph - N/A   Clear
11:15 AM 70.5 °F 58.6 °F 66% 30.06 in 10.0 mi North 8.1 mph - N/A   Scattered Clouds
11:34 AM 71.2 °F 59.9 °F 67% 30.06 in 10.0 mi North 8.1 mph - N/A   Clear
11:54 AM 72.0 °F 59.7 °F 65% 30.06 in 10.0 mi NNW 6.9 mph - N/A   Clear
12:15 PM 71.8 °F 59.2 °F 64% 30.06 in 10.0 mi North 6.9 mph - N/A   Clear
12:34 PM 72.1 °F 58.5 °F 62% 30.07 in 10.0 mi North 8.1 mph - N/A   Clear
12:54 PM 72.7 °F 59.2 °F 62% 30.07 in 10.0 mi North 8.1 mph - N/A   Clear
1:15 PM 72.0 °F 58.1 °F 62% 30.06 in 10.0 mi NNW 8.1 mph - N/A   Clear
1:34 PM 72.7 °F 57.2 °F 58% 30.07 in 10.0 mi NNW 9.2 mph - N/A   Clear
1:54 PM 73.2 °F 57.9 °F 59% 30.07 in 10.0 mi NNW 10.4 mph 16.1 mph N/A   Clear
2:14 PM 72.9 °F 58.1 °F 60% 30.07 in 10.0 mi NNW 9.2 mph - N/A   Clear
2:34 PM 72.7 °F 58.3 °F 60% 30.07 in 10.0 mi NNW 10.4 mph - N/A   Clear
2:54 PM 73.0 °F 57.7 °F 59% 30.07 in 10.0 mi NNW 10.4 mph - N/A   Clear
3:14 PM 72.9 °F 57.7 °F 59% 30.06 in 10.0 mi NNW 9.2 mph - N/A   Clear
3:34 PM 71.6 °F 58.3 °F 63% 30.06 in 10.0 mi North 8.1 mph - N/A   Clear
3:54 PM 72.3 °F 58.1 °F 61% 30.06 in 10.0 mi North 8.1 mph - N/A   Clear
4:14 PM 71.6 °F 57.4 °F 61% 30.05 in 10.0 mi NNW 6.9 mph - N/A   Clear
4:34 PM 72.3 °F 58.1 °F 61% 30.05 in 10.0 mi NNW 8.1 mph - N/A   Clear
4:54 PM 72.5 °F 57.9 °F 60% 30.04 in 10.0 mi NNW 8.1 mph - N/A   Clear
5:14 PM 73.6 °F 56.1 °F 54% 30.05 in 10.0 mi North 9.2 mph - N/A   Clear
5:34 PM 73.8 °F 57.2 °F 56% 30.05 in 10.0 mi North 6.9 mph - N/A   Clear
5:54 PM 73.0 °F 57.7 °F 59% 30.05 in 10.0 mi North 9.2 mph - N/A   Clear
6:14 PM 72.9 °F 57.2 °F 58% 30.04 in 10.0 mi North 6.9 mph - N/A   Clear
6:33 PM 73.0 °F 57.0 °F 57% 30.05 in 10.0 mi North 8.1 mph - N/A   Clear
6:54 PM 73.4 °F 54.9 °F 52% 30.04 in 10.0 mi North 10.4 mph - N/A   Clear
7:14 PM 72.0 °F 53.1 °F 51% 30.03 in 10.0 mi North 6.9 mph - N/A   Clear
7:34 PM 72.0 °F 54.1 °F 53% 30.04 in 10.0 mi North 6.9 mph - N/A   Clear
7:54 PM 71.8 °F 54.3 °F 54% 30.04 in 10.0 mi North 5.8 mph - N/A   Scattered Clouds
8:15 PM 71.6 °F 55.4 °F 57% 30.05 in 10.0 mi North 5.8 mph - N/A   Mostly Cloudy
8:34 PM 71.2 °F 54.9 °F 56% 30.04 in 10.0 mi North 4.6 mph - N/A   Scattered Clouds
8:54 PM 70.9 °F 56.8 °F 61% 30.05 in 10.0 mi North 8.1 mph - N/A   Clear
9:15 PM 70.7 °F 56.3 °F 60% 30.05 in 10.0 mi North 6.9 mph - N/A   Clear
9:34 PM 70.0 °F 57.9 °F 65% 30.05 in 10.0 mi North 5.8 mph - N/A   Clear
9:54 PM 70.2 °F 57.6 °F 64% 30.05 in 10.0 mi North 9.2 mph - N/A   Mostly Cloudy
10:14 PM 69.8 °F 57.2 °F 64% 30.05 in 10.0 mi NNE 8.1 mph - N/A   Overcast
10:55 PM 68.7 °F 56.7 °F 65% 30.05 in 10.0 mi NE 5.8 mph - N/A   Mostly Cloudy
11:14 PM 68.4 °F 55.9 °F 64% 30.05 in 10.0 mi NNE 5.8 mph - N/A   Mostly Cloudy
11:34 PM 68.4 °F 55.4 °F 63% 30.05 in 10.0 mi NE 4.6 mph - N/A   Overcast
11:55 PM 68.0 °F 55.0 °F 63% 30.05 in 10.0 mi ENE 3.5 mph - N/A   Overcast